[[{"header":{"parameterUnit":"m.s-1","parameterCategory":1,"la1":30.2991,"la2":30.254,"lo1":-89.0895,"lo2":-89.0444,"dy":0.0017,"dx":0.0017,"nx":28,"ny":28,"refTime":"2024-06-23T03:00:00:Z","depth":0,"parameterNumber":2,"parameterNumberName":"U-component_of_WINDS"},"data":[0,0,0,0,0,0,0,0,0,0,0,0,0,0,0,0,0,0,0,0,0,0,0,0,0,0,0,0,0,0,0,0,0,0,0,0,0,0,0,0,0,0,0,0,0,0,0,0,0,0,0,0,0,0,0,0,0,0,0.686,0.6861,0,0.6952,0.6954,0.6955,0.6966,0.6965,0.6964,0.6963,0.7061,0.7065,0.7068,0,0,0,0,0,0,0,0,0,0,0,0,0,0.6696,0.6699,0.686,0.6861,0.6862,0.6952,0.6954,0.6955,0.6966,0.6965,0.6964,0.6963,0.706,0.7064,0.7068,0,0,0,0,0,0,0,0,0,0,0,0,0,0.6775,0.67,0.686,0.6879,0.6881,0.6952,0.6954,0.6955,0.6966,0.6965,0.6963,0.6962,0.7059,0.7064,0.7069,0.7128,0,0,0.7085,0.7087,0,0,0,0,0,0,0,0,0.6771,0.6781,0.6875,0.6878,0.6881,0.6946,0.6931,0.7013,0.6967,0.6934,0.6963,0.6961,0.7024,0.7032,0.7053,0.7133,0.7137,0.7085,0.7088,0.7091,0.7092,0,0,0,0,0,0,0,0.6765,0.6778,0.6897,0.6876,0.688,0.6883,0.6893,0.6947,0.6986,0.6937,0.6938,0.6948,0.7026,0.7048,0.7055,0.7138,0.7085,0.709,0.7093,0.7095,0.7271,0.7272,0,0,0,0,0,0,0.6756,0.6773,0.6894,0.69,0.6821,0.6887,0.6898,0.6927,0.6985,0.6993,0.6949,0.6949,0.7039,0.7049,0.7058,0.7131,0.709,0.7095,0.7098,0.7269,0.7271,0.7273,0,0,0,0,0,0,0.6752,0.6767,0.689,0.6837,0.6852,0.6892,0.6923,0.6929,0.6951,0.6995,0.7002,0.6965,0.7039,0.7051,0.711,0.7135,0.7098,0.7102,0.7267,0.727,0.7272,0.7277,0,0,0,0,0,0,0.6748,0.6765,0.6788,0.6837,0.6855,0.694,0.6925,0.6932,0.696,0.6959,0.7011,0.7018,0.7039,0.7102,0.7115,0.7141,0.7106,0.7265,0.7269,0.7271,0.7275,0.7279,0.7283,0,0,0,0,0,0.6742,0.6787,0.6789,0.6803,0.6884,0.6941,0.6952,0.6973,0.6961,0.6985,0.7012,0.7017,0.713,0.7108,0.7123,0.7151,0.7264,0.7268,0.7271,0.7273,0.7278,0.7283,0,0,0,0,0,0,0.6741,0.6793,0.6797,0.6859,0.6895,0.6943,0.6973,0.6978,0.702,0.7018,0.7044,0.7055,0.7113,0.7138,0.7113,0.7211,0.7196,0.7202,0.7192,0.7198,0.7202,0.7195,0.7111,0,0,0,0,0,0.6748,0.6789,0.6833,0.6883,0.6901,0.6934,0.6959,0.6972,0.7012,0.7028,0.706,0.7099,0.7143,0.7172,0.7215,0.7278,0.729,0.7305,0.7309,0.7312,0.7317,0.7352,0.7359,0.7284,0.7284,0.7284,0,0,0.6763,0.6796,0.6821,0.6884,0.6914,0.6956,0.6947,0.6992,0.7024,0.7035,0.7092,0.7117,0.7162,0.7223,0.7252,0.7246,0.734,0.7316,0.7318,0.7322,0.7356,0.7363,0.7369,0.7287,0.7286,0.7286,0,0,0.6811,0.6841,0.6886,0.6915,0.696,0.6981,0.6992,0.7039,0.7055,0.7113,0.7121,0.716,0.7236,0.7267,0.7293,0.7352,0.7357,0.7365,0.7387,0.742,0.7426,0.7431,0.7451,0.7458,0.7371,0.7371,0.7371,0,0.6825,0.6888,0.6909,0.6953,0.698,0.6991,0.7036,0.7064,0.7121,0.714,0.7132,0.7226,0.7258,0.7325,0.7339,0.736,0.7373,0.736,0.7423,0.7428,0.7434,0.7453,0.7461,0.7371,0.7371,0.7371,0.7371,0,0.6902,0.6945,0.6976,0.7029,0.706,0.7105,0.7133,0.7162,0.7172,0.7194,0.7252,0.7289,0.7339,0.7357,0.7368,0.7426,0.7421,0.7417,0.7403,0.7441,0.746,0.7468,0.7372,0.7372,0.7372,0.7372,0,0,0.6954,0.7016,0.7027,0.7051,0.71,0.7135,0.718,0.7228,0.7252,0.729,0.7329,0.7392,0.7389,0.7418,0.7433,0.7462,0.7505,0.7455,0.7457,0.7463,0.7571,0.7572,0.7581,0.7508,0.751,0.7511,0.7567,0,0.7007,0.7087,0.7106,0.7175,0.7216,0.7225,0.7265,0.7299,0.7321,0.7359,0.7383,0.7427,0.742,0.7437,0.7466,0.7493,0.7527,0.749,0.7545,0.7547,0.7533,0.7591,0.7593,0.7644,0.7574,0.7576,0.7576,0,0.7081,0.712,0.7192,0.7235,0.7253,0.7288,0.7332,0.7369,0.7408,0.7422,0.7453,0.7464,0.7512,0.7495,0.7561,0.7535,0.7559,0.7575,0.7578,0.7584,0.7564,0.7598,0.7661,0.7668,0.7589,0.7588,0.7587,0,0.7111,0.7181,0.7233,0.7253,0.7305,0.7329,0.7352,0.739,0.7417,0.7456,0.7474,0.7519,0.7544,0.7578,0.7601,0.7587,0.7665,0.765,0.7678,0.7677,0.7694,0.7693,0.7761,0.771,0.771,0.7709,0.7709,0,0.7169,0.7213,0.7247,0.7279,0.7328,0.735,0.7398,0.7421,0.7454,0.7491,0.7503,0.7537,0.7566,0.7604,0.7623,0.7674,0.7685,0.7698,0.7702,0.7696,0.7695,0.7712,0.7709,0.7711,0.7711,0.7711,0.771,0,0.7211,0.7235,0.7293,0.7336,0.7348,0.7382,0.742,0.7451,0.7472,0.7519,0.7531,0.7565,0.761,0.7636,0.7694,0.7707,0.7763,0.7767,0.775,0.7752,0.7778,0.7774,0.7859,0.7871,0.7812,0.7813,0.7813,0,0.7246,0.728,0.7326,0.7351,0.7374,0.7414,0.7441,0.7464,0.7492,0.7538,0.7564,0.761,0.7648,0.772,0.775,0.7794,0.7798,0.7825,0.7805,0.7798,0.7798,0.7796,0.7799,0.7828,0.7829,0.7829,0.783,0,0.7306,0.7316,0.7355,0.7397,0.7429,0.7463,0.7498,0.7518,0.7546,0.7577,0.7623,0.7652,0.771,0.7755,0.7802,0.7826,0.7833,0.7836,0.7844,0.7839,0.7827,0.7833,0.7759,0.7834,0.7833,0.7833,0.7833,0.7833,0.7346,0.7375,0.7412,0.7454,0.7482,0.7514,0.7545,0.7569,0.7608,0.7656,0.7667,0.7715,0.7753,0.7816,0.7841,0.7879,0.7874,0.7887,0.789,0.7893,0.7893,0.7821,0.7888,0.7888,0.7888,0.7887,0.7887,0,0.7405,0.7429,0.7468,0.7515,0.7548,0.755,0.7588,0.7615,0.7657,0.7692,0.7728,0.778,0.7824,0.7857,0.7901,0.7926,0.793,0.7937,0.7935,0.794,0.7895,0.7883,0.7932,0.7932,0.7932,0.7932,0.7932,0.7932,0.744,0.7491,0.7505,0.7569,0.7593,0.7639,0.7661,0.769,0.7717,0.7774,0.781,0.7831,0.7864,0.7911,0.7951,0.796,0.7976,0.7982,0.7991,0.7948,0.7944,0.7939,0.7927,0.7985,0.7985,0.8033,0.8033,0.8033]},{"header":{"parameterUnit":"m.s-1","parameterCategory":1,"la1":30.2991,"la2":30.254,"lo1":-89.0895,"lo2":-89.0444,"dy":0.0017,"dx":0.0017,"nx":28,"ny":28,"refTime":"2024-06-23T03:00:00:Z","depth":0,"parameterNumber":3,"parameterNumberName":"V-component_of_WINDS"},"data":[0,0,0,0,0,0,0,0,0,0,0,0,0,0,0,0,0,0,0,0,0,0,0,0,0,0,0,0,0,0,0,0,0,0,0,0,0,0,0,0,0,0,0,0,0,0,0,0,0,0,0,0,0,0,0,0,0,0,2.9238,2.9237,0,2.9217,2.9217,2.9216,2.9215,2.9215,2.9215,2.9216,2.9191,2.919,2.9189,0,0,0,0,0,0,0,0,0,0,0,0,0,2.9272,2.9272,2.9238,2.9237,2.9237,2.9217,2.9217,2.9216,2.9215,2.9215,2.9215,2.9216,2.9191,2.919,2.9189,0,0,0,0,0,0,0,0,0,0,0,0,0,2.9255,2.9271,2.9238,2.9234,2.9234,2.9217,2.9217,2.9216,2.9215,2.9215,2.9215,2.9216,2.9191,2.919,2.9189,2.9173,0,0,2.9185,2.9184,0,0,0,0,0,0,0,0,2.9256,2.9253,2.9235,2.9234,2.9234,2.9219,2.922,2.9202,2.9215,2.9222,2.9216,2.9216,2.9199,2.9197,2.9193,2.9172,2.9171,2.9184,2.9184,2.9183,2.9183,0,0,0,0,0,0,0,2.9257,2.9254,2.9229,2.9235,2.9234,2.9232,2.923,2.9216,2.9209,2.9221,2.9221,2.9219,2.9199,2.9194,2.9192,2.9171,2.9184,2.9183,2.9182,2.9182,2.9134,2.9134,0,0,0,0,0,0,2.9259,2.9255,2.923,2.9229,2.9246,2.9231,2.9229,2.9223,2.9209,2.9207,2.9218,2.9219,2.9196,2.9194,2.9191,2.9171,2.9183,2.9182,2.9181,2.9135,2.9134,2.9134,0,0,0,0,0,0,2.926,2.9257,2.9231,2.9242,2.9239,2.923,2.9224,2.9223,2.9217,2.9207,2.9205,2.9215,2.9196,2.9193,2.9178,2.917,2.9181,2.918,2.9135,2.9135,2.9134,2.9131,0,0,0,0,0,0,2.9261,2.9257,2.9253,2.9242,2.9238,2.9219,2.9223,2.9222,2.9216,2.9216,2.9203,2.9201,2.9196,2.918,2.9176,2.9169,2.9179,2.9136,2.9135,2.9134,2.9132,2.9131,2.913,0,0,0,0,0,2.9262,2.9252,2.9252,2.9249,2.9232,2.9218,2.9216,2.9212,2.9215,2.9209,2.9202,2.9202,2.9172,2.9178,2.9174,2.9166,2.9136,2.9135,2.9134,2.9133,2.9131,2.913,0,0,0,0,0,0,2.9261,2.9251,2.9251,2.9237,2.9229,2.9218,2.9211,2.921,2.92,2.92,2.9194,2.9191,2.9176,2.9169,2.9177,2.915,2.9154,2.9152,2.9154,2.9153,2.9151,2.9153,2.9178,0,0,0,0,0,2.9259,2.925,2.9241,2.923,2.9226,2.9219,2.9213,2.9211,2.9201,2.9197,2.9189,2.9179,2.9167,2.916,2.9148,2.9131,2.9128,2.9124,2.9122,2.9121,2.912,2.9108,2.9106,2.913,2.913,2.913,0,0,2.9255,2.9248,2.9243,2.923,2.9223,2.9212,2.9216,2.9205,2.9197,2.9195,2.918,2.9174,2.9162,2.9145,2.9138,2.914,2.9112,2.912,2.9119,2.9118,2.9107,2.9105,2.9103,2.913,2.913,2.913,0,0,2.9242,2.9237,2.9226,2.922,2.921,2.9205,2.9203,2.9192,2.9188,2.9173,2.9171,2.9161,2.9141,2.9132,2.9125,2.9109,2.9107,2.9105,2.9098,2.9087,2.9085,2.9083,2.9076,2.9073,2.9103,2.9103,2.9103,0,2.9238,2.9224,2.9221,2.921,2.9203,2.9202,2.9191,2.9184,2.917,2.9165,2.9168,2.9142,2.9134,2.9115,2.9111,2.9106,2.9101,2.9106,2.9086,2.9084,2.9082,2.9075,2.9072,2.9103,2.9103,2.9103,2.9103,0,2.9218,2.9208,2.9201,2.9189,2.9181,2.917,2.9164,2.9157,2.9154,2.9149,2.9133,2.9123,2.911,2.9105,2.9102,2.9085,2.9086,2.9087,2.9092,2.908,2.9073,2.907,2.9103,2.9103,2.9103,2.9103,0,0,2.9204,2.919,2.9187,2.9181,2.917,2.9161,2.9149,2.9137,2.913,2.9121,2.9109,2.9092,2.9093,2.9085,2.9082,2.9073,2.9058,2.9075,2.9074,2.9071,2.9036,2.9034,2.9031,2.9057,2.9057,2.9056,2.9036,0,2.9189,2.9169,2.9165,2.9147,2.9137,2.9136,2.9125,2.9116,2.911,2.91,2.9093,2.9081,2.9084,2.9079,2.907,2.9062,2.905,2.9063,2.9045,2.9044,2.9047,2.9027,2.9026,2.9007,2.9034,2.9033,2.9033,0,2.9168,2.9159,2.914,2.913,2.9125,2.9116,2.9104,2.9094,2.9083,2.908,2.9071,2.9068,2.9054,2.9059,2.9039,2.9047,2.9039,2.9034,2.9033,2.903,2.9037,2.9023,2.9001,2.8998,2.9029,2.9029,2.9029,0,2.9158,2.9141,2.9127,2.9122,2.911,2.9103,2.9097,2.9087,2.9079,2.9068,2.9063,2.905,2.9042,2.9031,2.9024,2.9029,2.9003,2.9009,2.8998,2.8998,2.8992,2.8992,2.8968,2.8989,2.8989,2.8989,2.8989,0,2.9141,2.9129,2.9122,2.9114,2.91,2.9095,2.9081,2.9075,2.9066,2.9055,2.9053,2.9042,2.9034,2.9022,2.9016,2.8999,2.8996,2.8991,2.899,2.8991,2.8991,2.8985,2.8985,2.8988,2.8989,2.8989,2.8989,0,2.9127,2.9122,2.9106,2.9096,2.9093,2.9083,2.9073,2.9064,2.9059,2.9045,2.9041,2.9032,2.9017,2.9009,2.8991,2.8987,2.8967,2.8967,2.8971,2.897,2.8959,2.896,2.8929,2.8924,2.895,2.8949,2.8949,0,2.9116,2.9107,2.9095,2.9088,2.9083,2.9072,2.9064,2.9059,2.9051,2.9037,2.9029,2.9015,2.9003,2.8979,2.8969,2.8955,2.8953,2.8943,2.8951,2.8952,2.8951,2.8951,2.8949,2.8941,2.8941,2.8941,2.8941,0,2.9096,2.9094,2.9084,2.9072,2.9063,2.9054,2.9044,2.9038,2.9032,2.9022,2.9008,2.8999,2.898,2.8965,2.8949,2.8941,2.8939,2.8939,2.8935,2.8936,2.8938,2.8935,2.8966,2.8939,2.8939,2.894,2.894,2.894,2.9082,2.9073,2.9064,2.9052,2.9045,2.9036,2.9026,2.902,2.9008,2.8993,2.8991,2.8975,2.8963,2.8942,2.8934,2.892,2.8922,2.8917,2.8916,2.8914,2.8913,2.8941,2.8917,2.8917,2.8917,2.8917,2.8917,0,2.9061,2.9055,2.9044,2.9031,2.9022,2.9022,2.9012,2.9003,2.8989,2.8979,2.8968,2.895,2.8935,2.8925,2.8909,2.89,2.8898,2.8896,2.8895,2.8893,2.8913,2.8917,2.8897,2.8897,2.8897,2.8897,2.8897,2.8897,2.9049,2.9034,2.9031,2.9011,2.9005,2.8991,2.8984,2.8975,2.8967,2.8948,2.8936,2.893,2.8918,2.8902,2.8887,2.8884,2.8878,2.8875,2.8872,2.889,2.8892,2.8894,2.8898,2.8874,2.8874,2.8853,2.8853,2.8853]}]]